User: anonymous   Login
Location: Unspecified
(0.0000°N, 0.0000°E)
Time: 19:59:47
(UTC+00:00)
Language:

MINXSS - Orbit

View from above orbital plane
View from above orbital plane
View from above satellite
View from above satellite

Ground track
Ground track

The orbit data is extracted from the following two-line orbital elements,

1 41474U 98067HU  17125.52237589  .05724416  12300-4  86147-3 0  9995
2 41474 051.6449 208.6967 0008167 329.0747 030.9230 16.33400422055623
Epoch (UTC): 05 May 2017 12:32:13
Eccentricity: 0.0008167
inclination: 51.6449°
perigee height: 178 km
apogee height: 189 km
right ascension of ascending node: 208.6967°
argument of perigee: 329.0747°
revolutions per day: 16.33400422
mean anomaly at epoch: 30.9230°
orbit number at epoch: 5562

The dashed part of the orbit path shows where the satellite is in the earth's shadow,  

DLR